Date_and_time,latitude,longitude,wind_speed,RelWindDirFrom,WindDirFrom,air_pressure,air_temperature,relative_humidity,Temp,platform_speed_wrt_ground,air_pressure_at_mean_sea_level,platform_orientation
2019-10-03 23:50,50.6947516666667,-96.5622616666667,3.8,8.3,345,998.98,8.4,56,11.39,0.0,1026.29,299.6
2019-10-04 00:00,50.6947483333333,-96.5622633333333,4.7,7.5,311,998.98,8.0,55,11.41,0.0,1026.31,243.9
2019-10-04 00:10,50.6947183333333,-96.562255,1.7,4.2,283,999.07,7.8,55,11.42,0.0,1026.42,243.9
2019-10-04 00:20,50.6947466666667,-96.5622716666667,0.1,1.6,8,999.20,7.9,63,11.41,0.0,1026.57,243.9
2019-10-04 00:30,50.6947433333333,-96.56227,1.2,2.1,67,999.29,7.6,68,11.43,0.0,1026.68,243.9
2019-10-04 00:40,50.694745,-96.5622716666667,2.1,3.7,96,999.39,6.9,78,11.45,0.0,1026.81,243.9
2019-10-04 00:50,50.6947466666667,-96.5622716666667,3.8,4.8,124,999.52,6.8,83,11.46,0.0,1026.95,243.9
2019-10-04 01:00,50.6947466666667,-96.5622716666667,3.6,4.4,144,999.63,7.0,83,11.46,0.0,1027.05,228.2
2019-10-04 01:10,50.6947466666667,-96.56227,3.4,4.6,162,999.79,7.2,85,11.44,0.0,1027.20,228.2
2019-10-04 01:20,50.6947483333333,-96.56227,2.9,4.3,120,999.85,7.0,85,11.47,0.0,1027.27,228.2
2019-10-04 01:30,50.6947483333333,-96.56227,3.7,4.8,114,999.92,6.3,84,11.49,0.0,1027.37,228.2
2019-10-04 01:40,50.6947483333333,-96.5622716666667,3.2,4.5,108,999.92,6.1,84,11.48,0.0,1027.38,228.2
2019-10-04 01:50,50.6947483333333,-96.56227,2.9,3.6,141,1000.03,6.3,83,11.50,0.0,1027.50,228.2
2019-10-04 02:00,50.6947533333333,-96.5622283333333,3.2,4.3,119,1000.02,6.1,87,11.53,0.0,1027.52,147.3
2019-10-04 02:10,50.6947433333333,-96.5622616666667,3.0,4.0,111,999.99,5.6,89,11.50,0.0,1027.51,147.3
2019-10-04 02:20,50.6947483333333,-96.5622633333333,2.9,3.8,125,999.97,5.5,86,11.49,0.0,1027.50,147.3
2019-10-04 02:30,50.69475,-96.562265,2.8,3.7,134,999.96,5.5,89,11.52,0.0,1027.53,147.3
2019-10-04 02:40,50.69475,-96.562265,3.5,4.3,121,999.91,5.3,90,11.54,0.0,1027.50,147.3
2019-10-04 02:50,50.6947516666667,-96.562265,3.7,4.5,119,999.92,4.9,91,11.54,0.0,1027.52,147.3
2019-10-04 03:00,50.6947516666667,-96.5622666666667,3.5,4.5,142,1000.07,5.0,92,11.52,0.0,1027.66,360.0
2019-10-04 03:10,50.6947516666667,-96.5622666666667,3.8,4.9,120,1000.19,5.0,93,11.49,0.0,1027.78,360.0
2019-10-04 03:20,50.6947566666667,-96.5622433333333,3.3,4.6,123,1000.31,5.0,93,11.46,0.0,1027.95,360.0
2019-10-04 03:30,50.694755,-96.56225,3.8,4.6,119,1000.38,5.1,93,11.46,0.0,1028.02,360.0
2019-10-04 03:40,50.694755,-96.562255,3.9,4.9,115,1000.40,5.1,89,11.47,0.0,1028.03,360.0
2019-10-04 03:50,50.6947566666667,-96.5622583333333,3.1,3.8,134,1000.52,5.3,87,11.45,0.0,1028.15,360.0
2019-10-04 04:00,50.694755,-96.5622583333333,3.3,4.1,111,1000.53,4.7,91,11.43,0.0,1028.22,360.0
2019-10-04 04:10,50.694755,-96.5622616666667,3.4,4.2,110,1000.57,4.4,91,11.40,0.0,1028.28,360.0
2019-10-04 04:20,50.694755,-96.5622633333333,3.2,4.1,118,1000.67,4.4,91,11.38,0.0,1028.39,360.0
2019-10-04 04:30,50.694755,-96.562265,3.4,4.2,133,1000.73,4.6,91,11.36,0.0,1028.45,360.0
2019-10-04 04:40,50.6947566666667,-96.562265,3.3,4.0,130,1000.82,4.8,89,11.35,0.0,1028.55,360.0
2019-10-04 04:50,50.6947566666667,-96.562265,3.6,4.5,122,1000.83,4.8,88,11.33,0.0,1028.56,360.0
2019-10-04 05:00,50.69473,-96.56229,4.1,5.1,122,1000.86,4.5,89,11.34,0.0,1028.60,240.7
2019-10-04 05:10,50.69475,-96.5622716666667,4.2,5.1,121,1000.87,4.4,89,11.33,0.0,1028.62,240.7
2019-10-04 05:20,50.6947483333333,-96.5622716666667,4.0,5.3,119,1000.89,4.3,90,11.33,0.0,1028.63,240.7
2019-10-04 05:30,50.69474,-96.5622633333333,4.3,5.5,134,1000.91,4.5,91,11.31,0.0,1028.65,240.7
2019-10-04 05:40,50.6947483333333,-96.5622633333333,4.2,6.0,149,1000.93,5.0,88,11.30,0.0,1028.64,240.7
2019-10-04 05:50,50.6947516666667,-96.56227,5.9,7.9,163,1000.93,5.8,82,11.28,0.0,1028.62,240.7
2019-10-04 06:00,50.6947516666667,-96.5622666666667,5.5,7.7,159,1000.91,6.3,80,11.28,0.0,1028.60,0.0
2019-10-04 06:10,50.69473,-96.5622566666667,4.9,7.0,160,1000.89,6.1,82,11.29,0.0,1028.58,0.0
2019-10-04 06:20,50.694745,-96.5622616666667,5.3,6.7,164,1000.91,6.4,81,11.30,0.0,1028.57,0.0
2019-10-04 06:30,50.6947483333333,-96.5622683333333,5.1,6.9,162,1000.96,6.2,84,11.31,0.0,1028.63,0.0
2019-10-04 06:40,50.6947516666667,-96.56227,4.4,6.2,156,1000.98,5.8,89,11.33,0.0,1028.67,0.0
2019-10-04 06:50,50.6947533333333,-96.56227,4.2,5.3,147,1001.02,5.6,90,11.32,0.0,1028.73,0.0
2019-10-04 07:00,50.6947533333333,-96.5622716666667,4.3,5.9,142,1001.03,5.5,93,11.27,0.0,1028.76,240.7
2019-10-04 07:10,50.6947533333333,-96.5622716666667,4.1,5.7,149,1001.04,5.3,93,11.22,0.0,1028.78,240.7
2019-10-04 07:20,50.6947533333333,-96.5622716666667,4.3,5.7,156,1001.09,5.3,93,11.22,0.0,1028.82,240.7
2019-10-04 07:30,50.694755,-96.56227,4.7,6.6,160,1001.19,5.4,93,11.26,0.0,1028.89,240.7
2019-10-04 07:40,50.694755,-96.56227,7.1,10.0,199,1001.29,6.1,83,11.30,0.0,1028.92,240.7
2019-10-04 07:50,50.694755,-96.56227,7.1,9.5,198,1001.36,6.5,81,11.30,0.0,1028.96,240.7
2019-10-04 08:00,50.694755,-96.56227,7.4,10.7,197,1001.39,6.7,78,11.27,0.0,1028.98,19.8
2019-10-04 08:10,50.694755,-96.56227,7.5,9.8,195,1001.44,6.9,78,11.25,0.0,1029.01,19.8
2019-10-04 08:20,50.6947533333333,-96.5622716666667,7.8,11.0,198,1001.46,6.9,75,11.22,0.0,1029.04,19.8
2019-10-04 08:30,50.694755,-96.56227,8.7,10.7,190,1001.49,7.2,74,11.21,0.0,1029.07,19.8
2019-10-04 08:40,50.694755,-96.56227,8.6,10.8,188,1001.52,7.4,72,11.20,0.0,1029.10,19.8
2019-10-04 08:50,50.694755,-96.56227,8.3,10.2,180,1001.46,8.4,67,11.21,0.0,1029.00,19.8
2019-10-04 09:00,50.6947566666667,-96.56227,8.4,10.2,175,1001.49,9.1,67,11.25,0.0,1029.01,311.8
2019-10-04 09:10,50.6947566666667,-96.56227,7.6,9.7,168,1001.43,8.6,70,11.22,0.0,1028.97,311.8
2019-10-04 09:20,50.6947566666667,-96.56227,5.7,8.3,155,1001.45,7.1,81,11.21,0.0,1029.05,311.8
2019-10-04 09:30,50.6947566666667,-96.56227,5.3,6.5,152,1001.46,5.9,88,11.21,0.0,1029.09,311.8
2019-10-04 09:40,50.6947566666667,-96.56227,5.7,7.7,154,1001.40,5.7,90,11.25,0.0,1029.03,311.8
2019-10-04 09:50,50.6947566666667,-96.5622683333333,6.0,7.2,151,1001.37,5.4,91,11.25,0.0,1029.00,311.8
2019-10-04 10:00,50.694755,-96.5622683333333,6.1,7.9,151,1001.33,5.0,92,11.24,0.0,1028.97,37.9
2019-10-04 10:10,50.694755,-96.5622683333333,6.0,7.9,153,1001.31,4.7,93,11.21,0.0,1028.95,37.9
2019-10-04 10:20,50.694755,-96.5622683333333,6.5,8.5,157,1001.38,4.7,92,11.20,0.0,1029.01,37.9
2019-10-04 10:30,50.694755,-96.5622683333333,6.4,8.4,157,1001.42,4.6,92,11.17,0.0,1029.05,37.9
2019-10-04 10:40,50.694755,-96.5622683333333,5.9,7.1,150,1001.38,4.5,92,11.15,0.0,1028.97,37.9
2019-10-04 10:50,50.6947616666667,-96.56227,6.1,7.7,150,1001.33,4.4,91,11.11,0.0,1028.88,37.9
2019-10-04 11:00,50.6947583333333,-96.562265,6.1,7.5,154,1001.34,4.4,89,11.09,0.0,1028.91,12.0
2019-10-04 11:10,50.6947433333333,-96.5622733333333,6.4,7.6,152,1001.34,4.3,90,11.10,0.0,1029.01,12.0
2019-10-04 11:20,50.6947566666667,-96.5622583333333,6.7,9.1,153,1001.32,4.2,90,11.15,0.0,1029.05,12.0
2019-10-04 11:30,50.6947566666667,-96.5622633333333,6.8,9.0,156,1001.24,4.3,90,11.14,0.0,1028.97,12.0
2019-10-04 11:40,50.694755,-96.5622666666667,6.6,8.9,154,1001.18,4.2,91,11.12,0.0,1028.93,12.0
2019-10-04 11:50,50.6947533333333,-96.5622683333333,6.8,9.1,156,1001.14,4.1,92,11.10,0.0,1028.90,12.0
2019-10-04 12:00,50.6947516666667,-96.5622683333333,6.6,8.6,158,1001.14,4.2,91,11.09,0.0,1028.91,142.1
2019-10-04 12:10,50.6947516666667,-96.5622683333333,7.2,8.8,161,1001.22,4.6,89,11.10,0.0,1028.98,142.1
2019-10-04 12:20,50.6947516666667,-96.5622683333333,7.1,8.9,161,1001.32,4.5,91,11.08,0.0,1029.09,142.1
2019-10-04 12:30,50.6890066666667,-96.579355,10.1,17.1,189,1001.12,4.2,89,11.16,4.4,1028.91,142.1
2019-10-04 12:40,50.6812233333333,-96.6260883333333,15.0,16.9,210,1000.87,4.1,87,11.60,11.0,1028.67,142.1
2019-10-04 12:50,50.67849,-96.6376516666667,13.8,16.8,177,1000.80,5.7,86,11.83,2.8,1028.51,142.1
2019-10-04 13:00,50.6784533333333,-96.6376733333333,12.8,15.0,169,1000.77,6.2,85,11.94,0.0,1028.46,251.2
2019-10-04 13:10,50.6784566666667,-96.6377416666667,12.6,14.5,169,1000.68,6.2,84,11.97,0.0,1028.37,251.2
2019-10-04 13:20,50.67848,-96.6378333333333,13.1,15.4,165,1000.52,6.1,82,11.99,0.0,1028.21,251.2
2019-10-04 13:30,50.67848,-96.6378916666667,12.8,15.6,161,1000.47,6.1,81,12.01,0.0,1028.16,251.2
2019-10-04 13:40,50.6785066666667,-96.6378633333333,12.6,15.3,162,1000.61,6.2,80,12.02,0.0,1028.30,251.2
2019-10-04 13:50,50.6784983333333,-96.63768,13.4,16.3,172,1000.45,6.6,78,12.04,0.0,1028.11,251.2
2019-10-04 14:00,50.6784866666667,-96.637615,14.3,16.9,176,1000.40,6.8,75,12.04,0.0,1028.03,251.2
2019-10-04 14:10,50.67849,-96.637855,14.4,16.9,175,1000.33,6.8,74,12.04,0.1,1027.97,251.2
2019-10-04 14:20,50.678495,-96.6378616666667,13.9,16.3,164,1000.24,6.5,75,12.04,0.0,1027.91,251.2
2019-10-04 14:30,50.6785016666667,-96.6376833333333,15.5,18.7,165,1000.06,6.5,72,12.04,0.0,1027.72,251.2
2019-10-04 14:40,50.6784783333333,-96.637785,15.5,17.8,167,1000.18,6.4,74,12.04,0.0,1027.77,251.2
2019-10-04 14:50,50.6785033333333,-96.6378266666667,15.5,19.5,172,1000.22,6.3,74,12.05,0.0,1027.80,251.2
2019-10-04 15:00,50.6785066666667,-96.637665,16.0,19.5,173,1000.16,6.5,75,12.05,0.0,1027.72,251.2
2019-10-04 15:10,50.6785033333333,-96.637725,17.3,21.9,171,1000.23,6.3,75,12.05,0.0,1027.80,251.2
2019-10-04 15:20,50.674605,-96.638625,18.1,22.7,179,999.62,6.4,76,12.04,1.4,1027.17,251.2
2019-10-04 15:30,50.6702616666667,-96.6436033333333,19.5,23.3,178,999.62,6.3,76,12.02,1.9,1027.18,251.2
2019-10-04 15:40,50.6660483333333,-96.64941,19.6,23.2,175,999.45,6.4,76,12.00,2.0,1026.98,251.2
2019-10-04 15:50,50.6622916666667,-96.655965,18.9,23.8,177,999.63,6.5,78,11.97,2.0,1027.15,251.2
2019-10-04 16:00,50.6462983333333,-96.6601783333333,23.3,28.0,182,998.77,6.6,77,11.95,5.8,1026.26,204.0
2019-10-04 16:10,50.621655,-96.6627483333333,25.6,29.8,179,998.54,6.7,77,11.91,8.9,1026.04,204.0
2019-10-04 16:20,50.59333,-96.6664883333333,25.7,30.7,178,998.55,6.7,78,11.84,10.2,1026.04,204.0
2019-10-04 16:30,50.587475,-96.668965,19.3,22.6,173,999.07,6.7,77,11.67,2.2,1026.59,204.0
2019-10-04 16:40,50.5811483333333,-96.6716466666667,18.7,22.1,172,999.08,6.9,78,11.50,2.4,1026.59,204.0
2019-10-04 16:50,50.57492,-96.674255,19.9,23.3,179,998.99,7.0,77,11.43,2.3,1026.48,204.0
2019-10-04 17:00,50.56205,-96.6691216666667,21.4,28.9,177,998.73,7.2,77,11.39,4.8,1026.21,189.8
2019-10-04 17:10,50.558305,-96.6661833333333,19.2,26.7,180,998.83,7.3,75,11.43,1.5,1026.30,189.8
2019-10-04 17:20,50.558295,-96.6660033333333,17.1,22.5,178,998.85,7.4,76,11.45,0.0,1026.32,189.8
2019-10-04 17:30,50.558305,-96.6662166666667,18.0,23.0,178,998.79,7.4,74,11.44,0.0,1026.26,189.8
2019-10-04 17:40,50.5487083333333,-96.66239,21.1,31.2,185,998.61,7.5,74,11.43,3.6,1026.07,189.8
2019-10-04 17:50,50.51981,-96.6493533333333,27.1,31.0,177,997.92,7.6,74,11.32,10.8,1025.35,189.8
2019-10-04 18:00,50.4917333333333,-96.63545,27.0,30.3,172,997.83,7.5,74,11.24,10.6,1025.25,179.5
2019-10-04 18:10,50.46992,-96.6245116666667,23.5,31.5,173,998.25,7.6,74,11.18,8.2,1025.68,179.5
2019-10-04 18:20,50.463055,-96.6219083333333,18.1,26.3,182,998.75,7.5,72,10.99,2.5,1026.19,179.5
2019-10-04 18:30,50.4627183333333,-96.623085,14.9,21.4,180,998.95,7.6,72,10.98,0.3,1026.39,179.5
2019-10-04 18:40,50.462565,-96.6347866666667,16.0,19.3,171,999.38,7.4,73,10.88,2.7,1026.83,179.5
2019-10-04 18:50,50.4621816666667,-96.6447533333333,14.5,18.6,170,999.17,7.4,73,10.63,2.3,1026.61,179.5
2019-10-04 19:00,50.4614233333333,-96.6554583333333,15.5,18.4,173,999.04,7.5,73,10.42,2.5,1026.47,179.3
2019-10-04 19:10,50.459525,-96.6759583333333,16.7,21.7,180,998.89,7.6,73,10.20,4.7,1026.30,179.3
2019-10-04 19:20,50.4579366666667,-96.68764,17.2,20.7,183,998.31,7.8,74,10.52,2.7,1025.70,179.3
2019-10-04 19:30,50.457975,-96.6876683333333,15.1,18.7,176,997.98,7.8,74,10.68,0.0,1025.36,179.3
2019-10-04 19:40,50.45915,-96.6908566666667,15.3,19.5,182,997.90,7.8,74,10.72,0.8,1025.27,179.3
2019-10-04 19:50,50.48401,-96.71554,8.3,13.3,192,998.14,7.7,74,10.77,10.6,1025.52,179.3
2019-10-04 20:00,50.509265,-96.741715,7.0,11.4,195,997.96,7.9,74,10.74,10.9,1025.32,221.2
2019-10-04 20:10,50.5336833333333,-96.7704816666667,7.1,12.0,195,997.75,7.7,76,10.66,11.0,1025.12,221.2
2019-10-04 20:20,50.5584083333333,-96.7994533333333,6.8,11.2,181,997.50,7.7,76,10.52,11.1,1024.86,221.2
2019-10-04 20:30,50.5836616666667,-96.8271566666667,6.5,9.9,176,997.26,7.8,76,10.89,11.1,1024.62,221.2
2019-10-04 20:40,50.608475,-96.8557166666667,7.4,10.2,177,997.11,7.8,75,11.21,11.1,1024.46,221.2
2019-10-04 20:50,50.62609,-96.89163,12.4,22.3,181,996.98,7.9,74,11.41,10.4,1024.32,221.2
2019-10-04 21:00,50.6283916666667,-96.93959,19.7,23.2,189,996.92,8.1,73,11.47,11.0,1024.25,305.4
2019-10-04 21:10,50.6280866666667,-96.9810433333333,17.8,22.4,189,996.59,7.9,74,11.11,9.5,1023.90,305.4
2019-10-04 21:20,50.6304466666667,-96.980775,13.9,17.7,155,996.15,8.4,72,10.30,0.9,1023.42,305.4
2019-10-04 21:30,50.6304383333333,-96.9807716666667,16.2,20.0,145,995.87,7.9,74,9.91,0.0,1023.17,305.4
2019-10-04 21:40,50.6304366666667,-96.9807683333333,16.8,20.5,144,995.61,8.0,74,9.85,0.0,1022.90,305.4
2019-10-04 21:50,50.630435,-96.9807666666667,17.2,21.2,139,995.42,8.0,74,9.84,0.0,1022.69,305.4
2019-10-04 22:00,50.630435,-96.9807666666667,16.9,20.4,143,995.27,8.1,73,9.82,0.0,1022.55,309.4
2019-10-04 22:10,50.6304333333333,-96.9807683333333,16.9,21.1,143,995.21,8.1,74,9.85,0.0,1022.49,309.4
2019-10-04 22:20,50.6304366666667,-96.980765,18.0,21.9,142,995.11,8.1,72,9.87,0.0,1022.38,309.4
2019-10-04 22:30,50.6304366666667,-96.980765,16.6,20.2,143,995.04,8.2,73,9.84,0.0,1022.30,309.4
2019-10-04 22:40,50.6304366666667,-96.980765,17.2,20.9,142,994.91,8.2,72,9.79,0.0,1022.15,309.4
2019-10-04 22:50,50.6304366666667,-96.980765,17.6,20.9,142,994.75,8.2,72,9.75,0.0,1021.98,309.4
2019-10-04 23:00,50.6304366666667,-96.9807633333333,16.5,20.9,141,994.63,8.3,74,9.73,0.0,1021.87,308.7
2019-10-04 23:10,50.6304366666667,-96.9807633333333,17.0,22.5,147,994.45,8.2,74,9.70,0.0,1021.66,308.7
2019-10-04 23:20,50.6304383333333,-96.9807616666667,15.2,20.5,149,994.37,8.2,76,9.69,0.0,1021.60,308.7
2019-10-04 23:30,50.6304383333333,-96.9807616666667,17.1,21.6,142,994.20,8.2,74,9.66,0.0,1021.42,308.7
